Location: Falconara Alta
(43.6167°N, 13.4000°E)
Time: 16:03:27
(UTC+00:00)

Meteor 1-16 Rocket - Pass Details

Date: 09 April 2020
Orbit: 790 x 907 km, 81.2° (Epoch: 04 June)

Event Time Altitude Azimuth Distance (km) Brightness Sun altitude
Rises 18:29:44 0° 191° (S) 3,304 7.2 -8.9°
Reaches altitude 10° 18:32:05 10° 192° (SSW) 2,390 6.5 -9.3°
Maximum altitude 18:37:30 81° 281° (W) 844 4.3 -10.3°
Drops below altitude 10° 18:43:07 10° 8° (N) 2,482 6.8 -11.2°
Sets 18:45:36 0° 10° (N) 3,441 7.5 -11.6°
